GW5240 Weather Reports


time (UTC)temp
C
wind
direction
speed
KPH
gust
KPH
rain 1hr
cm
rain 24hr
cm
rain mn
cm
humidity
%
barometer
mb
20260905053058 20 121 0.0 0.0 0.00 0.00 0.00 88 1015.7
20260905052557 20 154 0.0 0.0 0.00 0.00 0.00 87 1015.6
20260905052052 20 112 1.6 4.8 0.00 0.00 0.00 87 1015.6
20260905051548 21 268 1.6 3.2 0.00 0.00 0.00 87 1015.5
20260905051044 21 216 1.6 3.2 0.00 0.00 0.00 86 1015.3
20260905050539 21 152 0.0 3.2 0.00 0.00 0.00 86 1015.2
20260905050037 21 130 1.6 3.2 0.00 0.00 0.00 86 1015.3
20260905045531 21 161 0.0 3.2 0.00 0.00 0.00 86 1015.3
20260905045026 21 237 0.0 0.0 0.00 0.00 0.00 85 1015.2
20260905044527 21 162 3.2 3.2 0.00 0.00 0.00 85 1015.5
20260905044026 21 166 0.0 3.2 0.00 0.00 0.00 85 1015.4
20260905043526 21 59 3.2 4.8 0.00 0.00 0.00 85 1015.2
20260905043021 21 169 3.2 3.2 0.00 0.00 0.00 84 1015.3
20260905042520 21 93 1.6 3.2 0.00 0.00 0.00 84 1015.6
20260905042015 21 156 0.0 3.2 0.00 0.00 0.00 84 1015.5
20260905041511 21 164 0.0 3.2 0.00 0.00 0.00 84 1015.6
20260905041006 22 63 1.6 3.2 0.00 0.00 0.00 83 1015.5
20260905040505 22 148 0.0 0.0 0.00 0.00 0.00 83 1015.3
20260905040004 22 144 0.0 0.0 0.00 0.00 0.00 82 1015.4
20260905035500 22 134 3.2 3.2 0.00 0.00 0.00 82 1015.6
20260905034957 22 75 3.2 4.8 0.00 0.00 0.00 82 1015.4
20260905034457 22 140 1.6 3.2 0.00 0.00 0.00 81 1015.4
20260905033956 22 143 1.6 3.2 0.00 0.00 0.00 81 1015.1
20260905033451 22 48 3.2 8.0 0.00 0.00 0.00 81 1015.4
20260905032946 22 130 3.2 3.2 0.00 0.00 0.00 80 1015.3
20260905032441 22 96 3.2 8.0 0.00 0.00 0.00 80 1015.3
20260905031936 23 98 3.2 3.2 0.00 0.00 0.00 80 1015.2
20260905031432 23 123 3.2 3.2 0.00 0.00 0.00 79 1015.2
20260905030927 23 155 3.2 3.2 0.00 0.00 0.00 79 1015.1
20260905030422 23 64 3.2 3.2 0.00 0.00 0.00 78 1015.1
20260905025921 23 209 3.2 3.2 0.00 0.00 0.00 78 1015.0
20260905025416 23 155 3.2 3.2 0.00 0.00 0.00 78 1015.1
20260905024913 23 323 8.0 14.5 0.00 0.00 0.00 77 1015.0
20260905024408 23 181 4.8 4.8 0.00 0.00 0.00 77 1014.8
20260905023904 23 301 4.8 8.0 0.00 0.00 0.00 76 1014.9
20260905023359 24 108 3.2 3.2 0.00 0.00 0.00 76 1014.8
20260905022857 24 153 1.6 3.2 0.00 0.00 0.00 75 1014.7
20260905022354 25 32 4.8 4.8 0.00 0.00 0.00 75 1014.7
20260905021853 25 102 3.2 3.2 0.00 0.00 0.00 74 1014.6
20260905021348 25 130 3.2 3.2 0.00 0.00 0.00 74 1014.4
20260905020843 25 357 9.7 14.5 0.00 0.00 0.00 74 1014.5
20260905020333 25 312 6.4 8.0 0.00 0.00 0.00 73 1014.5
20260905015832 25 97 3.2 4.8 0.00 0.00 0.00 73 1014.4
20260905015331 26 121 0.0 3.2 0.00 0.00 0.00 73 1014.7
20260905014830 26 107 1.6 3.2 0.00 0.00 0.00 73 1014.2
20260905014326 26 99 3.2 3.2 0.00 0.00 0.00 73 1014.1
20260905013821 26 166 0.0 0.0 0.00 0.00 0.00 74 1014.2
20260905013312 26 109 0.0 3.2 0.00 0.00 0.00 74 1014.1
20260905012807 26 159 0.0 0.0 0.00 0.00 0.00 73 1014.1
20260905012306 26 163 0.0 0.0 0.00 0.00 0.00 73 1014.0
20260905011759 26 158 0.0 0.0 0.00 0.00 0.00 72 1014.0
20260905011254 26 162 0.0 3.2 0.00 0.00 0.00 72 1014.0
20260905010749 26 119 0.0 3.2 0.00 0.00 0.00 71 1014.0
20260905010245 26 125 0.0 3.2 0.00 0.00 0.00 71 1013.9
20260905005741 26 145 0.0 3.2 0.00 0.00 0.00 71 1013.9
20260905005236 27 164 0.0 0.0 0.00 0.00 0.00 71 1013.6
20260905004736 27 158 0.0 3.2 0.00 0.00 0.00 70 1013.8
20260905004231 27 103 3.2 4.8 0.00 0.00 0.00 70 1013.6
20260905003731 27 133 1.6 3.2 0.00 0.00 0.00 70 1013.9
20260905003227 27 149 1.6 3.2 0.00 0.00 0.00 69 1013.7
20260905002722 27 169 1.6 3.2 0.00 0.00 0.00 69 1013.6
20260905002222 27 161 0.0 0.0 0.00 0.00 0.00 69 1013.6
20260905001717 27 106 3.2 3.2 0.00 0.00 0.00 68 1013.8
20260905001216 27 130 6.4 8.0 0.00 0.00 0.00 68 1013.7
20260905000712 28 149 0.0 3.2 0.00 0.00 0.00 67 1013.6
20260905000208 28 146 0.0 3.2 0.00 0.00 0.00 67 1013.6
20260904235707 28 136 1.6 3.2 0.00 0.00 0.00 67 1013.6
20260904235202 28 168 3.2 3.2 0.00 0.00 0.00 67 1013.6
20260904234657 28 173 3.2 3.2 0.00 0.00 0.00 66 1013.6
20260904234153 28 158 0.0 0.0 0.00 0.00 0.00 66 1013.4
20260904233648 28 133 3.2 3.2 0.00 0.00 0.00 65 1013.5
20260904233144 28 11 4.8 4.8 0.00 0.00 0.00 65 1013.4
20260904232640 28 138 3.2 4.8 0.00 0.00 0.00 65 1013.4
20260904232136 28 92 1.6 3.2 0.00 0.00 0.00 65 1013.6
20260904231632 28 155 0.0 0.0 0.00 0.00 0.00 65 1013.3
20260904231127 28 165 0.0 3.2 0.00 0.00 0.00 65 1013.3
20260904230626 28 77 1.6 4.8 0.00 0.00 0.00 65 1013.4
20260904230122 29 314 8.0 11.3 0.00 0.00 0.00 65 1013.3
20260904225619 29 148 6.4 8.0 0.00 0.00 0.00 65 1013.2
20260904225114 29 210 3.2 4.8 0.00 0.00 0.00 66 1013.2
20260904224609 29 170 1.6 3.2 0.00 0.00 0.00 65 1013.3
20260904224104 30 325 4.8 8.0 0.00 0.00 0.00 66 1013.3
20260904223603 30 172 0.0 3.2 0.00 0.00 0.00 66 1012.8
20260904223058 30 68 3.2 3.2 0.00 0.00 0.00 65 1013.1
20260904222554 30 283 0.0 0.0 0.00 0.00 0.00 64 1012.9
20260904222049 30 211 1.6 3.2 0.00 0.00 0.00 64 1012.8
20260904221544 30 342 6.4 8.0 0.00 0.00 0.00 63 1012.9
20260904221039 31 236 3.2 4.8 0.00 0.00 0.00 62 1013.1
20260904220538 30 149 0.0 0.0 0.00 0.00 0.00 63 1012.7
20260904220034 31 186 3.2 4.8 0.00 0.00 0.00 62 1012.6
20260904215533 31 252 6.4 8.0 0.00 0.00 0.00 63 1012.6
20260904215030 31 142 6.4 8.0 0.00 0.00 0.00 63 1012.7
20260904214525 31 343 3.2 4.8 0.00 0.00 0.00 63 1012.5
20260904214020 31 327 3.2 4.8 0.00 0.00 0.00 62 1012.5
20260904213518 31 351 4.8 8.0 0.00 0.00 0.00 63 1012.5
20260904213015 31 193 4.8 4.8 0.00 0.00 0.00 63 1012.7
20260904212514 30 80 4.8 4.8 0.00 0.00 0.00 64 1012.6
20260904212009 31 136 0.0 3.2 0.00 0.00 0.00 64 1012.7
20260904211503 31 281 3.2 4.8 0.00 0.00 0.00 64 1012.6
20260904210959 30 338 4.8 4.8 0.00 0.00 0.00 64 1012.8
20260904210458 30 299 4.8 8.0 0.00 0.00 0.00 65 1012.8
20260904205954 30 245 3.2 3.2 0.00 0.00 0.00 65 1012.6
20260904205449 30 19 3.2 4.8 0.00 0.00 0.00 66 1012.8
20260904204947 30 176 1.6 3.2 0.00 0.00 0.00 65 1012.7
20260904204442 31 111 4.8 4.8 0.00 0.00 0.00 64 1012.7
20260904203938 31 357 8.0 11.3 0.00 0.00 0.00 64 1012.6
20260904203434 31 120 3.2 4.8 0.00 0.00 0.00 63 1012.7
20260904202930 30 121 1.6 3.2 0.00 0.00 0.00 66 1012.6
20260904202426 30 319 9.7 11.3 0.00 0.00 0.00 64 1012.6
20260904201922 30 141 3.2 4.8 0.00 0.00 0.00 65 1012.7
20260904201416 30 21 3.2 4.8 0.00 0.00 0.00 65 1012.7
20260904200912 30 85 3.2 4.8 0.00 0.00 0.00 66 1012.6
20260904200410 30 24 6.4 11.3 0.00 0.00 0.00 65 1012.9
20260904195906 30 148 3.2 3.2 0.00 0.00 0.00 67 1012.8
20260904195403 30 2 3.2 4.8 0.00 0.00 0.00 67 1012.9
20260904194858 30 164 3.2 3.2 0.00 0.00 0.00 67 1012.9
20260904194358 30 18 6.4 11.3 0.00 0.00 0.00 67 1012.9
20260904193853 29 350 6.4 8.0 0.00 0.00 0.00 70 1012.7
20260904193348 29 354 3.2 8.0 0.00 0.00 0.00 69 1012.8
20260904192843 29 188 1.6 3.2 0.00 0.00 0.00 69 1012.8
20260904192339 28 176 3.2 4.8 0.00 0.00 0.00 72 1012.8
20260904191835 28 350 4.8 4.8 0.00 0.00 0.00 74 1012.9
20260904191332 28 344 4.8 8.0 0.00 0.00 0.00 72 1013.1
20260904190828 28 334 6.4 11.3 0.00 0.00 0.00 72 1013.1
20260904190324 29 184 6.4 8.0 0.00 0.00 0.00 71 1013.3
20260904185820 28 23 4.8 4.8 0.00 0.00 0.00 72 1013.2
20260904185315 28 263 8.0 11.3 0.00 0.00 0.00 72 1013.1
20260904184814 28 315 4.8 4.8 0.00 0.00 0.00 73 1013.1
20260904184309 27 296 3.2 4.8 0.00 0.00 0.00 75 1012.9
20260904183805 28 335 8.0 14.5 0.00 0.00 0.00 75 1013.1
20260904183300 27 82 3.2 4.8 0.00 0.00 0.00 75 1012.9
20260904182755 27 354 6.4 8.0 0.00 0.00 0.00 75 1013.1
20260904182250 27 236 3.2 3.2 0.00 0.00 0.00 76 1012.9
20260904181746 27 335 4.8 4.8 0.00 0.00 0.00 78 1013.1
20260904181246 27 10 9.7 16.1 0.00 0.00 0.00 78 1013.2
20260904180741 27 343 3.2 4.8 0.00 0.00 0.00 78 1013.2
20260904180236 26 244 4.8 4.8 0.00 0.00 0.00 79 1012.9
20260904175735 27 2 9.7 11.3 0.00 0.00 0.00 78 1013.1
20260904175233 27 294 6.4 8.0 0.00 0.00 0.00 79 1012.8
20260904174729 27 356 6.4 8.0 0.00 0.00 0.00 78 1012.8
20260904174225 27 171 1.6 3.2 0.00 0.00 0.00 78 1012.8
20260904173720 27 32 9.7 14.5 0.00 0.00 0.00 77 1012.9
20260904173215 27 111 3.2 4.8 0.00 0.00 0.00 77 1012.9
20260904172712 28 249 6.4 11.3 0.00 0.00 0.00 75 1012.6
20260904172210 28 18 3.2 4.8 0.00 0.00 0.00 75 1012.5
20260904171706 28 359 4.8 4.8 0.00 0.00 0.00 75 1012.5
20260904171201 28 298 4.8 4.8 0.00 0.00 0.00 75 1012.4
20260904170657 28 107 1.6 3.2 0.00 0.00 0.00 77 1012.6
20260904170153 27 77 1.6 4.8 0.00 0.00 0.00 79 1012.6
20260904165651 27 113 3.2 4.8 0.00 0.00 0.00 79 1012.7
20260904165151 27 300 3.2 4.8 0.00 0.00 0.00 79 1012.7
20260904164646 27 131 4.8 8.0 0.00 0.00 0.00 77 1012.5
20260904164141 27 168 3.2 4.8 0.00 0.00 0.00 80 1012.5
20260904163637 27 33 6.4 8.0 0.00 0.00 0.00 80 1012.5
20260904163132 27 14 6.4 11.3 0.00 0.00 0.00 79 1012.3
20260904162631 27 173 4.8 4.8 0.00 0.00 0.00 81 1012.4
20260904162126 27 27 8.0 11.3 0.00 0.00 0.00 78 1012.4
20260904161622 27 339 11.3 16.1 0.00 0.00 0.00 78 1012.4
20260904161117 28 15 9.7 11.3 0.00 0.00 0.00 77 1012.1
20260904160612 28 170 0.0 3.2 0.00 0.00 0.00 79 1012.2
20260904160108 28 245 6.4 8.0 0.00 0.00 0.00 78 1012.1
20260904155608 28 35 8.0 11.3 0.00 0.00 0.00 76 1012.0
20260904155102 28 309 6.4 8.0 0.00 0.00 0.00 77 1012.1
20260904154556 28 130 1.6 3.2 0.00 0.00 0.00 77 1011.9
20260904154051 28 350 6.4 8.0 0.00 0.00 0.00 77 1011.9
20260904153550 29 38 8.0 11.3 0.00 0.00 0.00 75 1011.8
20260904153046 29 89 3.2 4.8 0.00 0.00 0.00 74 1011.6
20260904152542 29 155 3.2 4.8 0.00 0.00 0.00 75 1011.7
20260904152038 28 161 1.6 3.2 0.00 0.00 0.00 77 1011.4
20260904151538 28 164 0.0 0.0 0.00 0.00 0.00 78 1011.4
20260904151037 28 147 3.2 4.8 0.00 0.00 0.00 78 1011.5
20260904150532 28 83 1.6 3.2 0.00 0.00 0.00 78 1011.2
20260904150027 27 174 0.0 0.0 0.00 0.00 0.00 80 1011.5
20260904145526 27 349 3.2 4.8 0.00 0.00 0.00 80 1011.2
20260904145022 27 176 3.2 4.8 0.00 0.00 0.00 82 1011.2
20260904144518 26 151 0.0 0.0 0.00 0.00 0.00 84 1011.1
20260904144014 26 146 3.2 3.2 0.00 0.00 0.00 85 1011.2
20260904143509 26 338 3.2 4.8 0.00 0.00 0.00 86 1011.2
20260904143006 25 141 0.0 3.2 0.00 0.00 0.00 87 1011.3
20260904142502 25 152 0.0 0.0 0.00 0.00 0.00 87 1011.3
20260904142001 25 162 0.0 0.0 0.00 0.00 0.00 88 1011.3
20260904141456 25 122 1.6 3.2 0.00 0.00 0.00 88 1011.2
20260904140953 25 183 1.6 3.2 0.00 0.00 0.00 89 1011.1
20260904140452 25 122 1.6 3.2 0.00 0.00 0.00 89 1011.2
20260904135952 25 122 3.2 3.2 0.00 0.00 0.00 91 1011.2
20260904135452 24 140 3.2 3.2 0.00 0.00 0.00 91 1011.1
20260904134948 24 139 1.6 3.2 0.00 0.00 0.00 93 1011.3
20260904134448 24 172 0.0 0.0 0.00 0.00 0.00 94 1011.4
20260904133943 23 137 0.0 0.0 0.00 0.00 0.00 94 1011.3
20260904133437 23 152 0.0 0.0 0.00 0.00 0.00 95 1011.4
20260904132933 23 143 0.0 3.2 0.00 0.00 0.00 96 1011.3
20260904132428 23 155 0.0 3.2 0.00 0.00 0.00 97 1011.1
20260904131928 23 155 0.0 3.2 0.00 0.00 0.00 97 1011.3
20260904131423 23 140 3.2 3.2 0.00 0.00 0.00 97 1011.2
20260904130919 23 315 0.0 3.2 0.00 0.00 0.00 98 1011.1
20260904130418 22 250 0.0 3.2 0.00 0.00 0.00 98 1011.0
20260904125912 22 159 0.0 0.0 0.00 0.00 0.00 98 1011.0
20260904125410 22 161 0.0 0.0 0.00 0.00 0.00 98 1011.1
20260904124908 22 137 0.0 0.0 0.00 0.00 0.00 98 1010.9
20260904124405 22 161 0.0 0.0 0.00 0.00 0.00 98 1010.8
20260904123900 22 161 0.0 3.2 0.00 0.00 0.00 98 1010.6
20260904123355 22 161 0.0 0.0 0.00 0.00 0.00 98 1010.7
20260904122851 22 161 0.0 0.0 0.00 0.00 0.00 98 1010.6
20260904122350 22 160 0.0 0.0 0.00 0.00 0.00 98 1010.8
20260904121844 22 160 0.0 0.0 0.00 0.00 0.00 98 1010.6
20260904121341 21 160 0.0 0.0 0.00 0.00 0.00 97 1010.6
20260904120837 21 160 0.0 0.0 0.00 0.00 0.00 97 1010.5
20260904120333 21 160 0.0 0.0 0.00 0.00 0.00 97 1010.5
20260904115828 21 158 0.0 0.0 0.00 0.00 0.00 97 1010.6
20260904115323 21 168 0.0 0.0 0.00 0.00 0.00 97 1010.4
20260904114823 21 144 0.0 0.0 0.00 0.00 0.00 97 1010.4
20260904114318 21 167 0.0 0.0 0.00 0.00 0.00 97 1010.5
20260904113813 21 163 0.0 0.0 0.00 0.00 0.00 97 1010.1
20260904113312 21 167 0.0 0.0 0.00 0.00 0.00 97 1010.2
20260904112807 21 162 0.0 0.0 0.00 0.00 0.00 97 1010.1
20260904112305 22 157 0.0 0.0 0.00 0.00 0.00 97 1010.3
20260904111758 22 148 0.0 0.0 0.00 0.00 0.00 97 1010.1
20260904111254 22 171 0.0 0.0 0.00 0.00 0.00 97 1010.2
20260904110749 22 162 0.0 0.0 0.00 0.00 0.00 97 1010.3
20260904110248 22 144 3.2 3.2 0.00 0.00 0.00 97 1010.0
20260904105743 22 173 0.0 3.2 0.00 0.00 0.00 97 1010.1
20260904105238 22 154 0.0 0.0 0.00 0.00 0.00 97 1010.2
20260904104733 22 175 0.0 0.0 0.00 0.00 0.00 97 1009.9
20260904104229 22 175 0.0 0.0 0.00 0.00 0.00 97 1010.2
20260904103726 22 176 0.0 0.0 0.00 0.00 0.00 97 1010.2
20260904103220 22 169 0.0 3.2 0.00 0.00 0.00 97 1010.1
20260904102716 22 150 0.0 3.2 0.00 0.00 0.00 97 1010.1
20260904102211 22 174 0.0 0.0 0.00 0.00 0.00 97 1010.2
20260904101708 22 156 0.0 0.0 0.00 0.00 0.00 97 1010.4
20260904101203 22 161 0.0 0.0 0.00 0.00 0.00 97 1010.3
20260904100659 22 161 0.0 0.0 0.00 0.00 0.00 97 1010.0
20260904100155 22 161 0.0 0.0 0.00 0.00 0.00 97 1010.3
20260904095649 22 161 0.0 0.0 0.00 0.00 0.00 97 1010.1
20260904095148 21 161 0.0 0.0 0.00 0.00 0.00 97 1010.1
20260904094644 21 161 0.0 0.0 0.00 0.00 0.00 97 1010.0
20260904094138 21 161 0.0 0.0 0.00 0.00 0.00 96 1009.9
20260904093636 22 161 0.0 0.0 0.00 0.00 0.00 96 1010.0
20260904093135 22 161 0.0 0.0 0.00 0.00 0.00 96 1009.8
20260904092631 21 161 0.0 0.0 0.00 0.00 0.00 96 1009.9
20260904092127 22 161 0.0 0.0 0.00 0.00 0.00 96 1009.9
20260904091623 22 161 0.0 0.0 0.00 0.00 0.00 96 1009.7
20260904091123 22 161 0.0 0.0 0.00 0.00 0.00 96 1009.8
20260904090618 22 160 0.0 0.0 0.00 0.00 0.00 96 1009.6
20260904090115 22 161 0.0 0.0 0.00 0.00 0.00 96 1009.8
20260904085614 22 161 0.0 0.0 0.00 0.00 0.00 96 1009.6
20260904085114 22 161 0.0 0.0 0.00 0.00 0.00 96 1009.4
20260904084610 22 160 0.0 0.0 0.00 0.00 0.00 96 1009.5
20260904084106 22 161 0.0 0.0 0.00 0.00 0.00 96 1009.7
20260904083602 22 160 0.0 0.0 0.00 0.00 0.00 96 1009.4
20260904083057 22 161 0.0 0.0 0.00 0.00 0.00 96 1009.6
20260904082552 22 161 0.0 0.0 0.00 0.00 0.00 96 1009.5
20260904082048 22 161 0.0 0.0 0.00 0.00 0.00 95 1009.6
20260904081543 22 160 0.0 0.0 0.00 0.00 0.00 95 1009.6
20260904081038 22 161 0.0 0.0 0.00 0.00 0.00 95 1009.6
20260904080534 22 161 0.0 0.0 0.00 0.00 0.00 95 1009.6
20260904080030 22 161 0.0 0.0 0.00 0.00 0.00 95 1009.5
20260904075526 22 161 0.0 0.0 0.00 0.00 0.00 95 1009.7
20260904075020 22 161 0.0 0.0 0.00 0.00 0.00 95 1009.3
20260904074515 22 161 0.0 0.0 0.00 0.00 0.00 95 1009.4
20260904074014 22 161 0.0 0.0 0.00 0.00 0.00 95 1009.4
20260904073510 22 161 0.0 0.0 0.00 0.00 0.00 95 1009.5
20260904073006 22 161 0.0 0.0 0.00 0.00 0.00 94 1009.6
20260904072502 22 161 0.0 0.0 0.00 0.00 0.00 94 1009.6
20260904072001 22 161 0.0 0.0 0.00 0.00 0.00 94 1009.5
20260904071457 22 161 0.0 0.0 0.00 0.00 0.00 94 1009.4
20260904070952 22 161 0.0 0.0 0.00 0.00 0.00 94 1009.9
20260904070450 22 160 0.0 0.0 0.00 0.00 0.00 94 1009.7
20260904065945 22 160 0.0 0.0 0.00 0.00 0.00 93 1009.3
20260904065441 23 160 0.0 0.0 0.00 0.00 0.00 93 1009.8
20260904064936 23 161 0.0 0.0 0.00 0.00 0.00 93 1009.8
20260904064432 23 160 0.0 0.0 0.00 0.00 0.00 93 1009.8
20260904063927 23 160 0.0 0.0 0.00 0.00 0.00 93 1009.6
20260904063424 23 160 0.0 0.0 0.00 0.00 0.00 93 1009.7
20260904062918 23 160 0.0 0.0 0.00 0.00 0.00 93 1009.9
20260904062414 23 161 0.0 0.0 0.00 0.00 0.00 92 1009.8
20260904061910 23 161 0.0 0.0 0.00 0.00 0.00 92 1009.7
20260904061406 23 161 0.0 0.0 0.00 0.00 0.00 92 1009.6
20260904060902 23 160 0.0 0.0 0.00 0.00 0.00 92 1009.7
20260904060358 23 160 0.0 0.0 0.00 0.00 0.00 92 1009.6
20260904055853 23 160 0.0 0.0 0.00 0.00 0.00 92 1009.7
20260904055348 23 160 0.0 0.0 0.00 0.00 0.00 92 1009.6
20260904054844 23 160 0.0 0.0 0.00 0.00 0.00 91 1009.6
20260904054340 23 161 0.0 0.0 0.00 0.00 0.00 91 1009.7
20260904053835 23 161 0.0 0.0 0.00 0.00 0.00 91 1009.5
20260904053334 23 160 0.0 0.0 0.00 0.00 0.00 91 1009.5